"Platform","Thunder Bay Island"
"Latitude (deg)",45.03472
"Longitude (deg)",-83.19417
"Sensor Device","Campbell CR1000 Logger battery voltage"
"Sensor Type","Battery voltage"
"Sensor Units","voltage"
"Measurement","2 minute average of data samples taken at 5 second interval"
"Time means","Time at beginning of averaging period (UTC time zone)"

"Note:","This data was collected for research purposes."
"Note:","Minimal quality checking has been performed so data may contain known or unknown errors."
"Note:","Data provided by NOAA. Please credit NOAA."
"Note:","For more info see www.glerl.noaa.gov/res/recon"

"Time (UTC)","Battery"
"YYYY/MM/DD HH:MM","volts"
2020/11/05 19:20, 13.81835
2020/11/05 19:22, 13.8293
2020/11/05 19:24, 13.81835
2020/11/05 19:26, 13.81835
2020/11/05 19:28, 13.81287
2020/11/05 19:30, 13.50616
2020/11/05 19:32, 13.44044
2020/11/05 19:34, 13.41853
2020/11/05 19:36, 13.50616
2020/11/05 19:38, 13.82382
2020/11/05 19:40, 13.81835
2020/11/05 19:42, 13.82382
2020/11/05 19:44, 13.81835
2020/11/05 19:46, 13.8293
2020/11/05 19:48, 13.8293
2020/11/05 19:50, 13.81287
2020/11/05 19:52, 13.82382
2020/11/05 19:54, 13.81835
2020/11/05 19:56, 13.82382
2020/11/05 19:58, 13.83478
2020/11/05 20:00, 13.8293
2020/11/05 20:02, 13.81287
2020/11/05 20:04, 13.81287
2020/11/05 20:06, 13.81835
2020/11/05 20:08, 13.81835
2020/11/05 20:10, 13.82382
2020/11/05 20:12, 13.81835
2020/11/05 20:14, 13.81835
2020/11/05 20:16, 13.82382
2020/11/05 20:18, 13.81287
2020/11/05 20:20, 13.8293
2020/11/05 20:22, 13.78001
2020/11/05 20:24, 13.70333
2020/11/05 20:26, 13.70333
2020/11/05 20:28, 13.73072
2020/11/05 20:30, 13.68142
2020/11/05 20:32, 13.63761
2020/11/05 20:34, 13.63213
2020/11/05 20:36, 13.64856
2020/11/05 20:38, 13.68142
2020/11/05 20:40, 13.71428
2020/11/05 20:42, 13.81287
2020/11/05 20:44, 13.82382
2020/11/05 20:46, 13.80192
2020/11/05 20:48, 13.80739
2020/11/05 20:50, 13.80192
2020/11/05 20:52, 13.81287
2020/11/05 20:54, 13.80739
2020/11/05 20:56, 13.79096
2020/11/05 20:58, 13.81287
2020/11/05 21:00, 13.80739
2020/11/05 21:02, 13.80739
2020/11/05 21:04, 13.78001
2020/11/05 21:06, 13.78548
2020/11/05 21:08, 13.81287
2020/11/05 21:10, 13.79096
2020/11/05 21:12, 13.81287
2020/11/05 21:14, 13.79644
2020/11/05 21:16, 13.82382
2020/11/05 21:18, 13.81287
2020/11/05 21:20, 13.80739
2020/11/05 21:22, 13.52807
2020/11/05 21:24, 13.81287
2020/11/05 21:26, 13.81287
2020/11/05 21:28, 13.79096
2020/11/05 21:30, 13.39662
2020/11/05 21:32, 13.81287
2020/11/05 21:34, 13.79096
2020/11/05 21:36, 13.80739
2020/11/05 21:38, 13.82382
2020/11/05 21:40, 13.80192
2020/11/05 21:42, 13.81835
2020/11/05 21:44, 13.82382
2020/11/05 21:46, 13.80739
2020/11/05 21:48, 13.79096
2020/11/05 21:50, 13.79644
2020/11/05 21:52, 13.81287
2020/11/05 21:54, 13.80192
2020/11/05 21:56, 13.45139
2020/11/05 21:58, 13.28161
2020/11/05 22:00, 13.16659
2020/11/05 22:02, 13.03514
2020/11/05 22:04, 12.92013
2020/11/05 22:06, 12.86536
2020/11/05 22:08, 12.7832
2020/11/05 22:10, 12.71748
2020/11/05 22:12, 12.66271
2020/11/05 22:14, 12.60246
2020/11/05 22:16, 12.55865
2020/11/05 22:18, 12.521
2020/11/05 22:20, 12.51047
2020/11/05 22:22, 12.48881
2020/11/05 22:24, 12.4615
2020/11/05 22:26, 12.45626
2020/11/05 22:28, 12.45103
2020/11/05 22:30, 12.41829
2020/11/05 22:32, 12.42379
2020/11/05 22:34, 12.42462
2020/11/05 22:36, 12.42423
2020/11/05 22:38, 12.41941
2020/11/05 22:40, 12.40905
2020/11/05 22:42, 12.42569
2020/11/05 22:44, 12.42036
2020/11/05 22:46, 12.41493
2020/11/05 22:48, 12.40398
2020/11/05 22:50, 12.40398
2020/11/05 22:52, 12.40399
2020/11/05 22:54, 12.40399
2020/11/05 22:56, 12.39303
2020/11/05 22:58, 12.40947
2020/11/05 23:00, 12.41494
2020/11/05 23:02, 12.38755
2020/11/05 23:04, 12.36016
2020/11/05 23:06, 12.39851
2020/11/05 23:08, 12.38207
2020/11/05 23:10, 12.39303
2020/11/05 23:12, 12.39303
2020/11/05 23:14, 12.38755
2020/11/05 23:16, 12.39851
2020/11/05 23:18, 12.40399
2020/11/05 23:20, 12.39303
2020/11/05 23:22, 12.39303
2020/11/05 23:24, 12.37659
2020/11/05 23:26, 12.39851
2020/11/05 23:28, 12.36563
2020/11/05 23:30, 12.38755
2020/11/05 23:32, 12.39303
2020/11/05 23:34, 12.38755
2020/11/05 23:36, 12.39303
2020/11/05 23:38, 12.38207
2020/11/05 23:40, 12.38755
2020/11/05 23:42, 12.38755
2020/11/05 23:44, 12.38755
2020/11/05 23:46, 12.37659
2020/11/05 23:48, 12.39303
2020/11/05 23:50, 12.38207
2020/11/05 23:52, 12.38207
2020/11/05 23:54, 12.38207
2020/11/05 23:56, 12.38207
2020/11/05 23:58, 12.38755
2020/11/06 00:00, 12.38207
2020/11/06 00:02, 12.36563
2020/11/06 00:04, 12.30537
2020/11/06 00:06, 12.37111
2020/11/06 00:08, 12.38254
2020/11/06 00:10, 12.34992
2020/11/06 00:12, 12.37689
2020/11/06 00:14, 12.37693
2020/11/06 00:16, 12.38218
2020/11/06 00:18, 12.37115
2020/11/06 00:20, 12.37113
2020/11/06 00:22, 12.37677
2020/11/06 00:24, 12.34927
2020/11/06 00:26, 12.37678
2020/11/06 00:28, 12.37119
2020/11/06 00:30, 12.37118
2020/11/06 00:32, 12.37144
2020/11/06 00:34, 12.37132
2020/11/06 00:36, 12.36604
2020/11/06 00:38, 12.37141
2020/11/06 00:40, 12.37675
2020/11/06 00:42, 12.34948
2020/11/06 00:44, 12.37129
2020/11/06 00:46, 12.33927
2020/11/06 00:48, 12.36663
2020/11/06 00:50, 12.36054
2020/11/06 00:52, 12.35498
2020/11/06 00:54, 12.34954
2020/11/06 00:56, 12.33872
2020/11/06 00:58, 12.36636
2020/11/06 01:00, 12.36138
2020/11/06 01:02, 12.33858
2020/11/06 01:04, 12.31161
2020/11/06 01:06, 12.25134
2020/11/06 01:08, 12.35058
2020/11/06 01:10, 12.3069
2020/11/06 01:12, 12.30587
2020/11/06 01:14, 12.34415
2020/11/06 01:16, 12.31714
2020/11/06 01:18, 12.33931
2020/11/06 01:20, 12.33347
2020/11/06 01:22, 12.3286
2020/11/06 01:24, 12.32342
2020/11/06 01:26, 12.34
2020/11/06 01:28, 12.32938
2020/11/06 01:30, 12.32869
2020/11/06 01:32, 12.33991
2020/11/06 01:34, 12.31804
2020/11/06 01:36, 12.32869
2020/11/06 01:38, 12.34005
2020/11/06 01:40, 12.33983
2020/11/06 01:42, 12.33957
2020/11/06 01:44, 12.32905
2020/11/06 01:46, 12.32926
2020/11/06 01:48, 12.31821
2020/11/06 01:50, 12.33419
2020/11/06 01:52, 12.33916
2020/11/06 01:54, 12.32892
2020/11/06 01:56, 12.32344
2020/11/06 01:58, 12.33035
2020/11/06 02:00, 12.33585
2020/11/06 02:02, 12.31951
2020/11/06 02:04, 12.2812
2020/11/06 02:06, 12.30914
2020/11/06 02:08, 12.33078
2020/11/06 02:10, 12.29817
2020/11/06 02:12, 12.28191
2020/11/06 02:14, 12.29814
2020/11/06 02:16, 12.3094
2020/11/06 02:18, 12.28207
2020/11/06 02:20, 12.28209
2020/11/06 02:22, 12.32047
2020/11/06 02:24, 12.32047
2020/11/06 02:26, 12.30951
2020/11/06 02:28, 12.32047
2020/11/06 02:30, 12.29855
2020/11/06 02:32, 12.31499
2020/11/06 02:34, 12.33143
2020/11/06 02:36, 12.29855
2020/11/06 02:38, 12.32047
2020/11/06 02:40, 12.33691
2020/11/06 02:42, 12.34239
2020/11/06 02:44, 12.34239
2020/11/06 02:46, 12.32047
2020/11/06 02:48, 12.33143
2020/11/06 02:50, 12.32047
2020/11/06 02:52, 12.33691
2020/11/06 02:54, 12.32595
2020/11/06 02:56, 12.33143
2020/11/06 02:58, 12.32047
2020/11/06 03:00, 12.33143
2020/11/06 03:02, 12.30951
2020/11/06 03:04, 12.21086
2020/11/06 03:06, 12.32595
2020/11/06 03:08, 12.32595
2020/11/06 03:10, 12.28759
2020/11/06 03:12, 12.29307
2020/11/06 03:14, 12.28211
2020/11/06 03:16, 12.28759
2020/11/06 03:18, 12.30403
2020/11/06 03:20, 12.32047
2020/11/06 03:22, 12.31499
2020/11/06 03:24, 12.32595
2020/11/06 03:26, 12.29307
2020/11/06 03:28, 12.32595
2020/11/06 03:30, 12.30951
2020/11/06 03:32, 12.31499
2020/11/06 03:34, 12.31499
2020/11/06 03:36, 12.32047
2020/11/06 03:38, 12.29307
2020/11/06 03:40, 12.32047
2020/11/06 03:42, 12.30951
2020/11/06 03:44, 12.32047
2020/11/06 03:46, 12.30951
2020/11/06 03:48, 12.30403
2020/11/06 03:50, 12.29307
2020/11/06 03:52, 12.30951
2020/11/06 03:54, 12.31499
2020/11/06 03:56, 12.29307
2020/11/06 03:58, 12.30951
2020/11/06 04:00, 12.30951
2020/11/06 04:02, 12.29855
2020/11/06 04:04, 12.22182
2020/11/06 04:06, 12.29307
2020/11/06 04:08, 12.30403
2020/11/06 04:10, 12.27663
2020/11/06 04:12, 12.29855
2020/11/06 04:14, 12.28759
2020/11/06 04:16, 12.30951
2020/11/06 04:18, 12.29855
2020/11/06 04:20, 12.30403
2020/11/06 04:22, 12.28211
2020/11/06 04:24, 12.30951
2020/11/06 04:26, 12.29855
2020/11/06 04:28, 12.29307
2020/11/06 04:30, 12.29855
2020/11/06 04:32, 12.28759
2020/11/06 04:34, 12.29307
2020/11/06 04:36, 12.28759
2020/11/06 04:38, 12.28211
2020/11/06 04:40, 12.28759
2020/11/06 04:42, 12.28211
2020/11/06 04:44, 12.27663
2020/11/06 04:46, 12.27663
2020/11/06 04:48, 12.27663
2020/11/06 04:50, 12.28759
2020/11/06 04:52, 12.27663
2020/11/06 04:54, 12.28211
2020/11/06 04:56, 12.27663
2020/11/06 04:58, 12.28759
2020/11/06 05:00, 12.27663
2020/11/06 05:02, 12.26018
2020/11/06 05:04, 12.22182
2020/11/06 05:06, 12.24374
2020/11/06 05:08, 12.27115
2020/11/06 05:10, 12.27115
2020/11/06 05:12, 12.26018
2020/11/06 05:14, 12.27115
2020/11/06 05:16, 12.26566
2020/11/06 05:18, 12.27115
2020/11/06 05:20, 12.24374
2020/11/06 05:22, 12.26018
2020/11/06 05:24, 12.24374
2020/11/06 05:26, 12.26566
2020/11/06 05:28, 12.26566
2020/11/06 05:30, 12.27115
2020/11/06 05:32, 12.27115
2020/11/06 05:34, 12.2547
2020/11/06 05:36, 12.2547
2020/11/06 05:38, 12.26566
2020/11/06 05:40, 12.26018
2020/11/06 05:42, 12.2547
2020/11/06 05:44, 12.26566
2020/11/06 05:46, 12.26566
2020/11/06 05:48, 12.26566
2020/11/06 05:50, 12.2547
2020/11/06 05:52, 12.27115
2020/11/06 05:54, 12.27115
2020/11/06 05:56, 12.28211
2020/11/06 05:58, 12.28211
2020/11/06 06:00, 12.27663
2020/11/06 06:02, 12.2547
2020/11/06 06:04, 12.21086
2020/11/06 06:06, 12.2273
2020/11/06 06:08, 12.27115
2020/11/06 06:10, 12.26566
2020/11/06 06:12, 12.27115
2020/11/06 06:14, 12.27115
2020/11/06 06:16, 12.26018
2020/11/06 06:18, 12.26566
2020/11/06 06:20, 12.26018
2020/11/06 06:22, 12.26566
2020/11/06 06:24, 12.27663
2020/11/06 06:26, 12.26566
2020/11/06 06:28, 12.27115
2020/11/06 06:30, 12.27115
2020/11/06 06:32, 12.26566
2020/11/06 06:34, 12.26566
2020/11/06 06:36, 12.26018
2020/11/06 06:38, 12.24922
2020/11/06 06:40, 12.2547
2020/11/06 06:42, 12.2547
2020/11/06 06:44, 12.24922
2020/11/06 06:46, 12.26566
2020/11/06 06:48, 12.26566
2020/11/06 06:50, 12.26018
2020/11/06 06:52, 12.23826
2020/11/06 06:54, 12.24374
2020/11/06 06:56, 12.2547
2020/11/06 06:58, 12.24922
2020/11/06 07:00, 12.2547
2020/11/06 07:02, 12.23826
2020/11/06 07:04, 12.16153
2020/11/06 07:06, 12.23278
2020/11/06 07:08, 12.24922
2020/11/06 07:10, 12.2273
2020/11/06 07:12, 12.2273
2020/11/06 07:14, 12.24374
2020/11/06 07:16, 12.23278
2020/11/06 07:18, 12.24374
2020/11/06 07:20, 12.24374
2020/11/06 07:22, 12.24955
2020/11/06 07:24, 12.2384
2020/11/06 07:26, 12.23891
2020/11/06 07:28, 12.24401
2020/11/06 07:30, 12.23951
2020/11/06 07:32, 12.23966
2020/11/06 07:34, 12.21785
2020/11/06 07:36, 12.22892
2020/11/06 07:38, 12.22864
2020/11/06 07:40, 12.22364
2020/11/06 07:42, 12.22319
2020/11/06 07:44, 12.20715
2020/11/06 07:46, 12.2128
2020/11/06 07:48, 12.21804
2020/11/06 07:50, 12.21277
2020/11/06 07:52, 12.21287
2020/11/06 07:54, 12.20192
2020/11/06 07:56, 12.20756
2020/11/06 07:58, 12.21295
2020/11/06 08:00, 12.20746
2020/11/06 08:02, 12.20196
2020/11/06 08:04, 12.15262
2020/11/06 08:06, 12.10877
2020/11/06 08:08, 12.20205
2020/11/06 08:10, 12.20225
2020/11/06 08:12, 12.18012
2020/11/06 08:14, 12.20197
2020/11/06 08:16, 12.20229
2020/11/06 08:18, 12.19108
2020/11/06 08:20, 12.20275
2020/11/06 08:22, 12.20251
2020/11/06 08:24, 12.19739
2020/11/06 08:26, 12.20817
2020/11/06 08:28, 12.19135
2020/11/06 08:30, 12.20758
2020/11/06 08:32, 12.19664
2020/11/06 08:34, 12.19654
2020/11/06 08:36, 12.19666
2020/11/06 08:38, 12.20205
2020/11/06 08:40, 12.19102
2020/11/06 08:42, 12.20196
2020/11/06 08:44, 12.19141
2020/11/06 08:46, 12.19088
2020/11/06 08:48, 12.19645
2020/11/06 08:50, 12.19646
2020/11/06 08:52, 12.20195
2020/11/06 08:54, 12.20174
2020/11/06 08:56, 12.20673
2020/11/06 08:58, 12.20086
2020/11/06 09:00, 12.20052
2020/11/06 09:02, 12.18366
2020/11/06 09:04, 12.11229
2020/11/06 09:06, 12.17803
2020/11/06 09:08, 12.20539
2020/11/06 09:10, 12.1725
2020/11/06 09:12, 12.17798
2020/11/06 09:14, 12.19442
2020/11/06 09:16, 12.18894
2020/11/06 09:18, 12.1725
2020/11/06 09:20, 12.18894
2020/11/06 09:22, 12.1999
2020/11/06 09:24, 12.1999
2020/11/06 09:26, 12.17798
2020/11/06 09:28, 12.1999
2020/11/06 09:30, 12.1999
2020/11/06 09:32, 12.18894
2020/11/06 09:34, 12.18894
2020/11/06 09:36, 12.19442
2020/11/06 09:38, 12.18894
2020/11/06 09:40, 12.17798
2020/11/06 09:42, 12.18894
2020/11/06 09:44, 12.18894
2020/11/06 09:46, 12.18894
2020/11/06 09:48, 12.17798
2020/11/06 09:50, 12.18346
2020/11/06 09:52, 12.18346
2020/11/06 09:54, 12.17798
2020/11/06 09:56, 12.18346
2020/11/06 09:58, 12.16154
2020/11/06 10:00, 12.18894
2020/11/06 10:02, 12.13413
2020/11/06 10:04, 12.13413
2020/11/06 10:06, 12.16702
2020/11/06 10:08, 12.17798
2020/11/06 10:10, 12.17798
2020/11/06 10:12, 12.13961
2020/11/06 10:14, 12.17798
2020/11/06 10:16, 12.16702
2020/11/06 10:18, 12.18346
2020/11/06 10:20, 12.17798
2020/11/06 10:22, 12.17798
2020/11/06 10:24, 12.18346
2020/11/06 10:26, 12.17798
2020/11/06 10:28, 12.17798
2020/11/06 10:30, 12.1725
2020/11/06 10:32, 12.1725
2020/11/06 10:34, 12.17798
2020/11/06 10:36, 12.15058
2020/11/06 10:38, 12.16154
2020/11/06 10:40, 12.15606
2020/11/06 10:42, 12.16702
2020/11/06 10:44, 12.1451
2020/11/06 10:46, 12.15058
2020/11/06 10:48, 12.15606
2020/11/06 10:50, 12.1451
2020/11/06 10:52, 12.15606
2020/11/06 10:54, 12.1451
2020/11/06 10:56, 12.15606
2020/11/06 10:58, 12.15606
2020/11/06 11:00, 12.1451
2020/11/06 11:02, 12.13413
2020/11/06 11:04, 12.01356
2020/11/06 11:06, 12.13961
2020/11/06 11:08, 12.15058
2020/11/06 11:10, 12.13413
2020/11/06 11:12, 12.13413
2020/11/06 11:14, 12.15058
2020/11/06 11:16, 12.15606
2020/11/06 11:18, 12.15058
2020/11/06 11:20, 12.1451
2020/11/06 11:22, 12.15606
2020/11/06 11:24, 12.13413
2020/11/06 11:26, 12.13961
2020/11/06 11:28, 12.15058
2020/11/06 11:30, 12.15606
2020/11/06 11:32, 12.15058
2020/11/06 11:34, 12.1451
2020/11/06 11:36, 12.1451
2020/11/06 11:38, 12.15606
2020/11/06 11:40, 12.15058
2020/11/06 11:42, 12.15606
2020/11/06 11:44, 12.15606
2020/11/06 11:46, 12.1451
2020/11/06 11:48, 12.13392
2020/11/06 11:50, 12.15051
2020/11/06 11:52, 12.15602
2020/11/06 11:54, 12.15036
2020/11/06 11:56, 12.156
2020/11/06 11:58, 12.16698
2020/11/06 12:00, 12.16152
2020/11/06 12:02, 12.14483
2020/11/06 12:04, 12.05732
2020/11/06 12:06, 12.1505
2020/11/06 12:08, 12.15603
2020/11/06 12:10, 12.15024
2020/11/06 12:12, 12.15036
2020/11/06 12:14, 12.15598
2020/11/06 12:16, 12.16699
2020/11/06 12:18, 12.16152
2020/11/06 12:20, 12.16153
2020/11/06 12:22, 12.15605
2020/11/06 12:24, 12.15031
2020/11/06 12:26, 12.1614
2020/11/06 12:28, 12.16116
2020/11/06 12:30, 12.16077
2020/11/06 12:32, 12.17188
2020/11/06 12:34, 12.17777
2020/11/06 12:36, 12.17763
2020/11/06 12:38, 12.21034
2020/11/06 12:40, 12.21034
2020/11/06 12:42, 12.19916
2020/11/06 12:44, 12.19363
2020/11/06 12:46, 12.1989
2020/11/06 12:48, 12.1936
2020/11/06 12:50, 12.21033
2020/11/06 12:52, 12.22071
2020/11/06 12:54, 12.22618
2020/11/06 12:56, 12.2265
2020/11/06 12:58, 12.22076
2020/11/06 13:00, 12.2426
2020/11/06 13:02, 12.24872
2020/11/06 13:04, 12.22082
2020/11/06 13:06, 12.25373
2020/11/06 13:08, 12.2979
2020/11/06 13:10, 12.28118
2020/11/06 13:12, 12.27055
2020/11/06 13:14, 12.324
2020/11/06 13:16, 12.30754
2020/11/06 13:18, 12.32986
2020/11/06 13:20, 12.36259
2020/11/06 13:22, 12.3897
2020/11/06 13:24, 12.39475
2020/11/06 13:26, 12.4444
2020/11/06 13:28, 12.47113
2020/11/06 13:30, 12.47186
2020/11/06 13:32, 12.52595
2020/11/06 13:34, 12.52627
2020/11/06 13:36, 12.56949
2020/11/06 13:38, 12.60717
2020/11/06 13:40, 12.62369
2020/11/06 13:42, 12.66221
2020/11/06 13:44, 12.71117
2020/11/06 13:46, 12.75478
2020/11/06 13:48, 12.8207
2020/11/06 13:50, 12.88078
2020/11/06 13:52, 12.93583
2020/11/06 13:54, 12.99581
2020/11/06 13:56, 12.98477
2020/11/06 13:58, 12.99571
2020/11/06 14:00, 13.03405
2020/11/06 14:02, 13.06189
2020/11/06 14:04, 13.01776
2020/11/06 14:06, 13.0725
2020/11/06 14:08, 13.14365
2020/11/06 14:10, 13.11077
2020/11/06 14:12, 13.1765
2020/11/06 14:14, 13.23129
2020/11/06 14:16, 13.24773
2020/11/06 14:18, 13.23677
2020/11/06 14:20, 13.2806
2020/11/06 14:22, 13.32991
2020/11/06 14:24, 13.37374
2020/11/06 14:26, 13.39565
2020/11/06 14:28, 13.42305
2020/11/06 14:30, 13.35182
2020/11/06 14:32, 13.43948
2020/11/06 14:34, 13.36826
2020/11/06 14:36, 13.49427
2020/11/06 14:38, 13.47783
2020/11/06 14:40, 13.49975
2020/11/06 14:42, 13.62576
2020/11/06 14:44, 13.50523
2020/11/06 14:46, 13.60933
2020/11/06 14:48, 13.58193
2020/11/06 14:50, 13.63672
2020/11/06 14:52, 13.71342
2020/11/06 14:54, 13.58741
2020/11/06 14:56, 13.79013
2020/11/06 14:58, 13.87779
2020/11/06 15:00, 13.97092
2020/11/06 15:02, 14.02023
2020/11/06 15:04, 14.02571
2020/11/06 15:06, 14.13529
2020/11/06 15:08, 14.27226
2020/11/06 15:10, 14.07502
2020/11/06 15:12, 14.21199
2020/11/06 15:14, 14.22295
2020/11/06 15:16, 14.23391
2020/11/06 15:18, 14.11885
2020/11/06 15:20, 14.21747
2020/11/06 15:22, 14.23391
2020/11/06 15:24, 14.03667
2020/11/06 15:26, 14.23939
2020/11/06 15:28, 14.23876
2020/11/06 15:30, 14.24398
2020/11/06 15:32, 14.24925
2020/11/06 15:34, 14.0514
2020/11/06 15:36, 14.25418
2020/11/06 15:38, 14.26538
2020/11/06 15:40, 14.25969
2020/11/06 15:42, 14.25931
2020/11/06 15:44, 14.25384
2020/11/06 15:46, 14.25353
2020/11/06 15:48, 13.97957
2020/11/06 15:50, 14.23154
2020/11/06 15:52, 14.25344
2020/11/06 15:54, 14.26438
2020/11/06 15:56, 14.34108
2020/11/06 15:58, 14.24653
2020/11/06 16:00, 14.25777
2020/11/06 16:02, 14.22994
2020/11/06 16:04, 14.15831
2020/11/06 16:06, 14.2239
2020/11/06 16:08, 14.22919
2020/11/06 16:10, 14.25106
2020/11/06 16:12, 14.24009
2020/11/06 16:14, 14.2346
2020/11/06 16:16, 14.24555
2020/11/06 16:18, 14.24008
2020/11/06 16:20, 14.22912
2020/11/06 16:22, 14.25103
2020/11/06 16:24, 14.2346
2020/11/06 16:26, 14.24555
2020/11/06 16:28, 14.25103
2020/11/06 16:30, 14.22912
2020/11/06 16:32, 14.24555
2020/11/06 16:34, 14.26198
2020/11/06 16:36, 14.24555
2020/11/06 16:38, 14.24008
2020/11/06 16:40, 14.25103
2020/11/06 16:42, 14.25103
2020/11/06 16:44, 14.26198
2020/11/06 16:46, 14.27294
2020/11/06 16:48, 14.27294
2020/11/06 16:50, 14.25651
2020/11/06 16:52, 14.26198
2020/11/06 16:54, 14.27294
2020/11/06 16:56, 14.26198
2020/11/06 16:58, 14.24008
2020/11/06 17:00, 14.26198
2020/11/06 17:02, 14.26198
2020/11/06 17:04, 14.22364
2020/11/06 17:06, 14.26198
2020/11/06 17:08, 14.25103
2020/11/06 17:10, 14.26198
2020/11/06 17:12, 14.27294
2020/11/06 17:14, 14.26746
2020/11/06 17:16, 14.27294
2020/11/06 17:18, 14.26746
2020/11/06 17:20, 14.27842
2020/11/06 17:22, 14.26746
2020/11/06 17:24, 14.27294
2020/11/06 17:26, 14.25103
2020/11/06 17:28, 14.27294
2020/11/06 17:30, 14.26746
2020/11/06 17:32, 14.25651
2020/11/06 17:34, 14.24555
2020/11/06 17:36, 14.24555
2020/11/06 17:38, 14.2346
2020/11/06 17:40, 14.2346
2020/11/06 17:42, 14.2346
2020/11/06 17:44, 14.24008
2020/11/06 17:46, 14.24008
2020/11/06 17:48, 13.83478
2020/11/06 17:50, 13.84574
2020/11/06 17:52, 13.84026
2020/11/06 17:54, 13.84574
2020/11/06 17:56, 13.85669
2020/11/06 17:58, 13.82931
2020/11/06 18:00, 13.83478
2020/11/06 18:02, 13.84527
2020/11/06 18:04, 13.76757
2020/11/06 18:06, 13.83949
2020/11/06 18:08, 13.84487
2020/11/06 18:10, 13.85584
2020/11/06 18:12, 13.83357
2020/11/06 18:14, 13.84477
2020/11/06 18:16, 13.83416
2020/11/06 18:18, 13.85539
2020/11/06 18:20, 13.85026
2020/11/06 18:22, 13.83933
2020/11/06 18:24, 13.84329
2020/11/06 18:26, 13.84929
2020/11/06 18:28, 13.83188
2020/11/06 18:30, 13.85264
2020/11/06 18:32, 13.84704
2020/11/06 18:34, 13.84203
2020/11/06 18:36, 13.85263
2020/11/06 18:38, 13.83079
2020/11/06 18:40, 13.84167
2020/11/06 18:42, 13.8361
2020/11/06 18:44, 13.84221
2020/11/06 18:46, 13.83187
2020/11/06 18:48, 13.83662
2020/11/06 18:50, 13.84225
2020/11/06 18:52, 13.83085
2020/11/06 18:54, 13.85277
2020/11/06 18:56, 13.8358
2020/11/06 18:58, 13.84201
2020/11/06 19:00, 13.84761
2020/11/06 19:02, 13.84769
2020/11/06 19:04, 13.82039
2020/11/06 19:06, 13.8039
2020/11/06 19:08, 13.84142
2020/11/06 19:10, 13.83081
2020/11/06 19:12, 13.84188
2020/11/06 19:14, 13.85235
2020/11/06 19:16, 13.85216
2020/11/06 19:18, 13.85211
2020/11/06 19:20, 13.84109
2020/11/06 19:22, 13.83608
2020/11/06 19:24, 13.85227
2020/11/06 19:26, 13.8466
2020/11/06 19:28, 13.84657
2020/11/06 19:30, 13.84109
2020/11/06 19:32, 13.85203
2020/11/06 19:34, 13.83013
2020/11/06 19:36, 13.83013
2020/11/06 19:38, 13.85203
2020/11/06 19:40, 13.84108
2020/11/06 19:42, 13.84108
2020/11/06 19:44, 13.8575
2020/11/06 19:46, 13.84108
2020/11/06 19:48, 13.85203
2020/11/06 19:50, 13.8356
2020/11/06 19:52, 13.85203
2020/11/06 19:54, 13.84656
2020/11/06 19:56, 13.84108
2020/11/06 19:58, 13.83013
2020/11/06 20:00, 13.83013
2020/11/06 20:02, 13.84656
2020/11/06 20:04, 13.81918
2020/11/06 20:06, 13.80823
2020/11/06 20:08, 13.83013
2020/11/06 20:10, 13.84656
2020/11/06 20:12, 13.8356
2020/11/06 20:14, 13.85203
2020/11/06 20:16, 13.83013
2020/11/06 20:18, 13.8356
2020/11/06 20:20, 13.85203
2020/11/06 20:22, 13.85203
2020/11/06 20:24, 13.83013
2020/11/06 20:26, 13.83013
2020/11/06 20:28, 13.8575
2020/11/06 20:30, 13.84108
2020/11/06 20:32, 13.86298
2020/11/06 20:34, 13.84108
2020/11/06 20:36, 13.84108
2020/11/06 20:38, 13.85203
2020/11/06 20:40, 13.84108
2020/11/06 20:42, 13.85203
2020/11/06 20:44, 13.8575
2020/11/06 20:46, 13.84108
2020/11/06 20:48, 13.8575
2020/11/06 20:50, 13.83013
2020/11/06 20:52, 13.8575
2020/11/06 20:54, 13.85203
2020/11/06 20:56, 13.85203
2020/11/06 20:58, 13.84656
2020/11/06 21:00, 13.84656
2020/11/06 21:02, 13.85203
2020/11/06 21:04, 13.82465
2020/11/06 21:06, 13.84656
2020/11/06 21:08, 13.85203
2020/11/06 21:10, 13.85203
2020/11/06 21:12, 13.85203
2020/11/06 21:14, 13.8356
2020/11/06 21:16, 13.86298
2020/11/06 21:18, 13.85203
2020/11/06 21:20, 13.8575
2020/11/06 21:22, 13.83013
2020/11/06 21:24, 13.84656
2020/11/06 21:26, 13.85203
2020/11/06 21:28, 13.8575
2020/11/06 21:30, 13.85203
2020/11/06 21:32, 13.85203
2020/11/06 21:34, 13.8575
2020/11/06 21:36, 13.8356
2020/11/06 21:38, 13.85203
2020/11/06 21:40, 13.8575
2020/11/06 21:42, 13.84656
2020/11/06 21:44, 13.8575
2020/11/06 21:46, 13.84151
2020/11/06 21:48, 13.85237
2020/11/06 21:50, 13.83638
2020/11/06 21:52, 13.83643
2020/11/06 21:54, 13.84768
2020/11/06 21:56, 13.85305
2020/11/06 21:58, 13.71603
2020/11/06 22:00, 13.34948
2020/11/06 22:02, 13.13526
2020/11/06 22:04, 12.93862
2020/11/06 22:06, 12.9065
2020/11/06 22:08, 12.81398
2020/11/06 22:10, 12.71054
2020/11/06 22:12, 12.65067
2020/11/06 22:14, 12.62368
2020/11/06 22:16, 12.56932
2020/11/06 22:18, 12.52567
2020/11/06 22:20, 12.49834
2020/11/06 22:22, 12.49838
2020/11/06 22:24, 12.47649
2020/11/06 22:26, 12.46554
2020/11/06 22:28, 12.46554
2020/11/06 22:30, 12.45459
2020/11/06 22:32, 12.43815
2020/11/06 22:34, 12.43815
2020/11/06 22:36, 12.4272
2020/11/06 22:38, 12.4272
2020/11/06 22:40, 12.43268
2020/11/06 22:42, 12.41625
2020/11/06 22:44, 12.41077
2020/11/06 22:46, 12.42172
2020/11/06 22:48, 12.41077
2020/11/06 22:50, 12.37791
2020/11/06 22:52, 12.42194
2020/11/06 22:54, 12.41672
2020/11/06 22:56, 12.41191
2020/11/06 22:58, 12.4121
2020/11/06 23:00, 12.41202
2020/11/06 23:02, 12.40114
2020/11/06 23:04, 12.31954
2020/11/06 23:06, 12.39623
2020/11/06 23:08, 12.39114
2020/11/06 23:10, 12.37461